Location: Asheville, NC
(35.6000°N, 82.5500°W)
Time: 07:15:20
(UTC-04:00)

Vanguard 3 - Pass Details

Date: 09 February 2018
Orbit: 508 x 3264 km, 33.4° (Epoch: 20 May)

Event Time Altitude Azimuth Distance (km) Brightness Sun altitude
Rises 19:50:51 0° 251° (WSW) 2,713 11.2 -21.7°
Reaches altitude 10° 19:52:46 10° 247° (WSW) 1,936 10.1 -22.1°
Maximum altitude 19:57:00 61° 167° (SSE) 865 7.1 -23.0°
Enters shadow 19:58:03 51° 120° (ESE) 1,024 7.2 -23.2°
Drops below altitude 10° 20:03:43 10° 88° (E) 3,043 - -24.3°
Sets 20:07:26 0° 86° (E) 4,456 - -25.1°
